{"data":{"norad_id":66228,"intl_designator":"2025-244Y","name":"STARLINK-35731","alt_names":[],"object_type":"PAYLOAD","status":"ACTIVE","operator":null,"country":"US","launch_date":"2025-10-28","launch_site_code":"AFWTR","launch_vehicle":null,"mission":null,"orbit_class":"UNKNOWN","rcs_meters":null,"size_class":null,"mass_kg":null,"dimensions":null,"purposes":["comms"],"wikipedia_slug":null,"has_3d_model":false,"image_url":null,"decayed_at":null,"tle_current":{"epoch":"2026-05-25T04:00:03.998880Z","epoch_age_seconds":64681,"freshness":"FRESH","line1":"1 66228U 25244Y   26145.16671295  .00054450  00000+0  16564-2 0  9997","line2":"2 66228  53.1602 234.5303 0001765  97.1143 152.1997 15.33519500  5806","mean_motion":15.335195,"eccentricity":0.0001765,"inclination_deg":53.1602,"raan_deg":234.5303,"arg_perigee_deg":97.1143,"mean_anomaly_deg":152.1997,"bstar":0.0016564,"rev_number":580,"period_min":93.901642594046,"perigee_km":464.11365343764,"apogee_km":466.52939429657,"semimajor_km":6843.4585238671,"source":"CELESTRAK","updated_at":"2026-05-25T13:38:21.131503Z"}}}